Location: Newark
(40.9833°N, 0.0333°W)
Time: 15:06:19
(UTC+00:00)

N. Korean satellite - Visible Passes

Search period start: 19 October 2019 00:00
Search period end: 29 October 2019 00:00
Orbit: 455 x 508 km, 97.2° (Epoch: 19 October)

Date Brightness Start Highest point End Pass type
(mag) Time Alt. Az. Time Alt. Az. Time Alt. Az.
19 Oct 9.3 05:16:06 10° NE 05:19:07 24° E 05:22:08 10° SSE visible
20 Oct 10.3 04:52:07 10° ENE 04:53:39 12° E 04:55:12 10° ESE visible
21 Oct 10.1 18:08:39 10° SW 18:10:32 14° W 18:12:26 10° WNW visible
22 Oct 8.2 05:33:11 10° NNE 05:36:40 41° E 05:40:09 10° S visible
22 Oct 8.9 17:42:03 10° SSW 17:45:04 29° W 17:48:08 10° NW visible
23 Oct 9.7 05:08:29 10° NE 05:11:15 20° E 05:14:02 10° SE visible
25 Oct 6.9 05:50:29 10° NNE 05:54:09 73° E 05:57:49 10° S visible
25 Oct 9.9 18:00:13 10° SW 18:02:36 18° W 18:05:00 10° NW visible
26 Oct 8.7 05:25:26 10° NNE 05:28:47 33° E 05:32:09 10° SSE visible
26 Oct 8.3 17:33:57 10° SSW 17:37:09 37° W 17:40:25 10° NNW visible
27 Oct 10.0 05:00:56 10° NE 05:03:22 17° E 05:05:46 10° SE visible
28 Oct 10.4 18:19:23 10° WSW 18:20:09 11° W 18:20:56 10° WNW visible
